Welcome to our new website - Welkom op onze vernieuwde website - Bienvenue sur notre nouveau site web - Willkommen auf unserer neuen Website
Check our progress frequently. Prüfen Sie unsere Fortschritte regelmäßig. Consultez notre progression fréquemment. Komt u straks nog eens terug

Bezoek ook deze websites:

Template documentation
and downloads

And another site



We konden geen weer-waarchuwingen ophalen. Ga rechtstreeks naar de Meteoalarm site : www.meteoalarm.eu en controleer daar .

Select another period ( hide this area )

Eenheden Periode Custom range Directly to
Metrisch Engels Beide
Dagelijkse Wekelijkse Maandelijkse Jaarlijkse
use both date-selectors for a custom range
previous Dag
With this date

WeatherUnderground graphs for this period ( click here )


Dagelijkse Samenvatting Zondag 21 juli 2024
Tijd Temp. ( °C ) Dew pt. ( °C ) Wind ( km/h ) van Windvlaag ( km/h ) Luchtdruk ( hPa ) Humid.( % ) Rainrate ( cm )
Hoog25,9 21,7 3,0 WZW ( 3/4 ) 3,0 1008,1 92 4,32
Gemiddeld22,4 19,4 0,0 Kalm #207/209 0,1 1006,2 84 3,10
Laag18,4 16,7 -   0,0 1005,1 72 -
Dagelijkse Tabular details for Zondag 21 juli 2024
Tijd Temp. ( °C ) Dew pt. ( °C ) Wind ( km/h ) van Windvlaag ( km/h ) Luchtdruk ( hPa ) Humid.( % ) Rainrate ( cm )
00:04 23,2 19,4   Kalm   1005,8 79 -
00:09 23,1 19,5   Kalm   1005,8 80 -
00:14 23,1 19,4   Kalm   1005,8 80 -
00:19 22,9 19,3   Kalm   1005,8 80 -
00:24 22,8 19,2   Kalm   1006,1 80 -
00:29 22,6 19,0   Kalm   1006,1 80 -
00:34 22,5 18,8   Kalm   1006,1 80 -
00:39 22,4 18,8   Kalm   1006,1 80 -
00:44 22,4 18,8   Kalm   1006,1 80 -
00:49 22,3 18,9   Kalm   1006,1 81 -
00:54 22,2 18,8   Kalm   1006,1 81 -
00:59 22,1 18,8   Kalm   1006,1 82 -
01:04 22,0 18,8   Kalm   1006,1 82 -
01:09 21,8 18,6   Kalm   1005,8 82 -
01:14 21,7 18,6   Kalm   1005,8 83 -
01:19 21,6 18,6   Kalm   1006,1 83 -
01:24 21,4 18,4   Kalm   1006,1 83 -
01:29 21,3 18,3   Kalm   1006,1 83 -
01:34 21,1 18,3   Kalm   1006,1 84 -
01:39 21,0 18,2   Kalm   1006,1 84 -
01:44 20,9 18,1   Kalm   1006,1 84 -
01:49 20,8 18,1   Kalm   1006,1 85 -
01:54 20,7 18,1   Kalm   1005,8 85 -
01:59 20,7 18,1   Kalm   1005,8 85 -
02:04 20,6 18,0   Kalm   1005,8 85 -
02:09 20,4 17,8   Kalm   1005,8 85 -
02:14 20,3 17,9   Kalm   1005,4 86 -
02:19 20,3 17,9   Kalm   1005,8 86 -
02:24 20,2 17,8   Kalm   1005,8 86 -
02:29 20,1 17,7   Kalm   1005,8 86 -
02:34 20,0 17,7   Kalm   1005,8 87 -
02:39 19,9 17,7   Kalm   1005,8 87 -
02:44 19,8 17,6   Kalm   1005,8 87 -
02:49 19,8 17,6   Kalm   1005,8 87 -
02:54 19,7 17,5   Kalm   1005,8 87 -
02:59 19,7 17,5   Kalm   1005,4 87 -
03:04 19,6 17,6   Kalm   1005,4 88 -
03:09 19,6 17,6   Kalm   1005,4 88 -
03:14 19,6 17,4   Kalm   1005,4 87 -
03:19 19,5 17,4   Kalm   1005,4 88 -
03:24 19,4 17,4   Kalm   1005,4 88 -
03:29 19,4 17,4   Kalm   1005,4 88 -
03:34 19,4 17,4   Kalm   1005,4 88 -
03:39 19,3 17,3   Kalm   1005,4 88 -
03:44 19,3 17,4   Kalm   1005,4 89 -
03:49 19,3 17,4   Kalm   1005,4 89 -
03:54 19,3 17,4   Kalm   1005,1 89 -
03:59 19,2 17,3   Kalm   1005,1 89 -
04:04 19,2 17,3   Kalm   1005,1 89 -
04:09 19,2 17,3   Kalm   1005,1 89 -
04:14 19,2 17,3   Kalm   1005,1 89 -
04:19 19,2 17,3   Kalm   1005,1 89 -
04:24 19,1 17,2   Kalm   1005,1 89 -
04:29 19,1 17,2   Kalm   1005,1 89 -
04:34 19,0 17,1   Kalm   1005,1 89 -
04:39 18,9 17,0   Kalm   1005,1 89 -
04:44 18,9 17,0   Kalm   1005,1 89 -
04:49 18,8 16,9   Kalm   1005,1 89 -
04:54 18,8 16,9   Kalm   1005,1 89 -
04:59 18,8 16,9   Kalm   1005,1 89 -
05:04 18,7 17,0   Kalm   1005,1 90 -
05:09 18,7 17,0   Kalm   1005,1 90 -
05:14 18,7 17,0   Kalm   1005,1 90 -
05:19 18,6 16,9   Kalm   1005,1 90 -
05:24 18,6 16,9   Kalm   1005,1 90 -
05:29 18,6 16,9   Kalm   1005,1 90 -
05:34 18,6 16,9   Kalm   1005,1 90 -
05:39 18,5 16,8   Kalm   1005,4 90 -
05:44 18,5 16,8   Kalm   1005,4 90 -
05:49 18,5 16,8   Kalm   1005,4 90 -
05:54 18,4 16,7   Kalm   1005,4 90 -
05:59 18,4 16,7   Kalm   1005,4 90 -
06:04 18,4 16,7   Kalm   1005,4 90 -
06:09 18,4 16,7   Kalm   1005,4 90 -
06:14 18,4 16,9   Kalm   1005,4 91 -
06:19 18,4 16,9   Kalm   1005,4 91 -
06:24 18,4 16,9   Kalm   1005,4 91 -
06:29 18,4 16,9   Kalm   1005,4 91 -
06:34 18,4 16,9   Kalm   1005,4 91 -
06:39 18,6 17,1   Kalm   1005,4 91 -
06:44 18,7 17,2   Kalm   1005,4 91 -
06:49 18,8 17,3   Kalm   1005,1 91 -
06:54 18,9 17,4   Kalm   1005,1 91 -
06:59 19,1 17,6   Kalm   1005,1 91 -
07:04 19,3 18,0   Kalm   1005,1 92 -
07:09 19,4 18,1   Kalm   1005,4 92 -
07:14 19,7 18,2   Kalm   1005,4 92 -
07:19 19,8 18,3   Kalm   1005,4 91 -
07:24 20,1 18,7   Kalm   1005,4 92 -
07:29 20,3 18,8   Kalm   1005,4 91 -
07:34 20,5 19,0   Kalm   1005,4 91 -
07:39 20,7 19,2   Kalm   1005,4 91 -
07:44 21,0 19,5   Kalm   1005,4 91 -
07:49 21,3 19,6   Kalm   1005,8 91 -
07:54 21,4 19,6   Kalm   1005,8 90 -
07:59 21,7 19,8   Kalm   1005,8 89 -
08:04 22,0 19,9   Kalm   1005,8 89 -
08:09 22,3 19,9   Kalm   1005,4 88 -
08:14 22,5 19,9   Kalm   1005,4 86 -
08:19 22,8 20,0   Kalm   1005,4 85 -
08:24 23,0 20,1   Kalm   1005,4 85 -
08:29 23,2 20,2   Kalm   1005,4 83 -
08:34 23,3 20,2   Kalm   1005,4 83 -
08:39 23,6 20,1   Kalm   1005,4 82 -
08:44 23,8 20,3   Kalm   1005,4 81 -
08:49 24,0 20,4   Kalm   1005,4 81 -
08:54 24,2 20,1   Kalm   1005,4 78 -
08:59 24,4 20,3   Kalm   1005,4 79 -
09:04 24,6 20,1   Kalm   1005,4 77 -
09:09 24,8 20,4   Kalm   1005,4 77 -
09:14 24,9 20,4   Kalm   1005,4 76 -
09:19 25,2 20,5   Kalm   1005,4 75 -
09:24 25,3 20,8   Kalm   1005,4 76 -
09:29 25,5 20,5   Kalm   1005,4 74 -
09:34 25,6 20,6   Kalm   1005,4 74 -
09:39 25,7 20,4   Kalm   1005,4 73 -
09:44 25,7 20,5   Kalm   1005,8 73 -
09:49 25,7 20,3   Kalm   1005,4 72 -
09:54 25,7 20,5   Kalm   1005,4 73 -
09:59 25,7 20,5   Kalm   1005,4 73 -
10:04 25,8 20,6   Kalm   1005,4 73 -
10:09 25,8 20,8   Kalm   1005,4 74 -
10:14 25,8 20,6   Kalm   1005,4 73 -
10:19 25,8 20,5   Kalm   1005,4 73 -
10:24 25,7 20,5   Kalm   1005,4 73 -
10:29 25,8 20,6   Kalm   1005,4 73 -
10:34 25,8 20,8   Kalm   1005,8 74 -
10:39 25,8 20,8   Kalm   1005,8 74 -
10:44 25,9 20,7   Kalm   1005,8 73 -
10:49 25,8 20,6   Kalm   1005,8 73 -
10:54 25,9 20,9   Kalm   1005,8 74 -
10:59 25,9 20,9   Kalm   1006,4 74 -
11:04 25,8 20,8   Kalm   1006,4 74 -
11:09 25,7 20,8   Kalm   1006,4 75 -
11:14 25,6 20,8   Kalm   1006,4 75 -
11:19 25,4 20,6   Kalm   1006,4 75 -
11:24 25,2 20,5   Kalm   1006,4 75 -
11:29 24,9 20,5   Kalm   1006,8 77 -
11:34 24,8 20,8   Kalm   1006,8 79 -
11:39 24,7 20,9   Kalm   1007,1 80 -
11:44 24,6 20,9   Kalm   1007,1 81 0,76
11:49 24,3 20,8   Kalm   1007,1 81 4,06
11:54 23,8 20,6   Kalm   1007,1 83 4,32
11:59 23,4 20,6   Kalm   1007,1 85 4,32
12:04 23,3 21,0   Kalm   1007,5 87 4,32
12:09 23,4 21,3   Kalm   1007,5 88 4,32
12:14 23,4 21,3   Kalm   1007,5 88 4,32
12:19 23,4 21,1   Kalm   1007,5 87 4,32
12:24 23,3 21,2   Kalm   1007,5 88 4,32
12:29 23,3 21,2   Kalm   1007,5 88 4,32
12:34 23,3 21,0   Kalm   1007,5 87 4,32
12:39 23,3 21,0   Kalm   1007,5 87 4,32
12:44 23,2 20,9   Kalm   1007,5 87 4,32
12:49 23,3 21,0   Kalm   1007,1 87 3,05
12:54 23,4 21,3   Kalm 2,0 1007,1 88 -
12:59 23,5 21,4 1,0 WNW 2,0 1007,1 88 -
13:04 23,4 20,7   Kalm   1007,1 85 -
13:09 23,6 21,3   Kalm 2,0 1007,1 87 -
13:14 23,8 21,3   Kalm   1007,1 86 -
13:19 24,0 21,3   Kalm 2,0 1007,1 85 -
13:24 24,3 21,6   Kalm   1007,1 85 -
13:29 24,5 21,5   Kalm 2,0 1007,1 84 -
13:34 24,6 21,4   Kalm   1007,1 83 -
13:39 24,6 21,3   Kalm   1007,1 82 -
13:44 24,6 21,1   Kalm   1007,1 81 -
13:49 24,4 20,9   Kalm   1007,1 81 -
13:54 24,3 21,0   Kalm   1007,1 82 -
13:59 24,3 21,0   Kalm   1007,1 82 -
14:04 24,3 21,2   Kalm   1007,1 83 -
14:09 24,3 21,2   Kalm   1006,8 83 0,25
14:14 24,2 21,0   Kalm   1006,8 83 0,25
14:19 24,1 21,2   Kalm   1006,8 84 0,25
14:24 24,1 21,2   Kalm   1006,8 84 0,25
14:29 24,3 21,4   Kalm   1006,8 84 0,25
14:34 24,4 21,5   Kalm   1007,1 84 0,25
14:39 24,6 21,7   Kalm   1007,1 84 0,25
14:44 24,7 21,4   Kalm   1007,1 82 0,25
14:49 24,8 21,4   Kalm   1007,1 82 0,25
14:54 24,9 21,6   Kalm   1007,1 82 0,25
14:59 25,1 21,6   Kalm   1007,1 81 0,25
15:04 25,2 21,6   Kalm   1007,1 81 0,25
15:09 25,3 21,6   Kalm   1007,1 80 0,25
15:14 25,3 21,4   Kalm   1007,5 79 -
15:19 25,4 21,5   Kalm   1007,5 79 -
15:24 25,4 21,5   Kalm   1007,5 79 -
15:29 25,3 21,4   Kalm   1007,1 79 -
15:34 25,4 21,5   Kalm   1007,5 79 -
15:39 25,3 21,3   Kalm   1007,5 79 -
15:44 25,2 21,4   Kalm   1007,5 80 -
15:49 25,1 21,4   Kalm   1007,5 80 -
15:54 24,9 21,2   Kalm   1007,5 80 0,25
15:59 24,6 20,9   Kalm   1007,5 80 0,25
16:04 24,3 20,7   Kalm   1007,5 81 0,25
16:09 24,0 20,7   Kalm   1007,5 82 0,25
16:14 23,9 20,6   Kalm   1007,5 82 0,25
16:19 23,9 20,6   Kalm   1007,5 82 0,25
16:24 23,9 20,6   Kalm   1007,5 82 0,25
16:29 23,8 20,5   Kalm   1007,5 82 0,25
16:34 23,7 20,4   Kalm   1007,8 82 0,25
16:39 23,6 20,3   Kalm   1007,8 82 0,25
16:44 23,6 20,3   Kalm   1007,8 82 0,25
16:49 23,6 20,3   Kalm   1007,8 82 0,25
16:54 23,6 20,3   Kalm   1007,8 82 0,25
16:59 23,5 20,0   Kalm   1007,8 81 -
17:04 23,6 20,1   Kalm   1007,8 81 -
17:09 23,6 19,9   Kalm   1007,8 80 -
17:14 23,6 19,7 3,0 WZW 3,0 1007,8 79 -
17:19 23,6 19,9   Kalm 3,0 1008,1 80 -
17:24 23,6 19,9   Kalm   1008,1 80 -
Dagelijkse Samenvatting Zondag 21 juli 2024
Tijd Temp. ( °C ) Dew pt. ( °C ) Wind ( km/h ) van Windvlaag ( km/h ) Luchtdruk ( hPa ) Humid.( % ) Rainrate ( cm )
Hoog25,9 21,7 3,0 WZW ( 3/4 ) 3,0 1008,1 92 4,32
Gemiddeld22,4 19,4 0,0 Kalm #207/209 0,1 1006,2 84 3,10
Laag18,4 16,7 -   0,0 1005,1 72 -
Dagelijkse Tabular details for Zondag 21 juli 2024
Tijd Temp. ( °C ) Dew pt. ( °C ) Wind ( km/h ) van Windvlaag ( km/h ) Luchtdruk ( hPa ) Humid.( % ) Rainrate ( cm )
00:04 23,2 19,4   Kalm   1005,8 79 -
00:09 23,1 19,5   Kalm   1005,8 80 -
00:14 23,1 19,4   Kalm   1005,8 80 -
00:19 22,9 19,3   Kalm   1005,8 80 -
00:24 22,8 19,2   Kalm   1006,1 80 -
00:29 22,6 19,0   Kalm   1006,1 80 -
00:34 22,5 18,8   Kalm   1006,1 80 -
00:39 22,4 18,8   Kalm   1006,1 80 -
00:44 22,4 18,8   Kalm   1006,1 80 -
00:49 22,3 18,9   Kalm   1006,1 81 -
00:54 22,2 18,8   Kalm   1006,1 81 -
00:59 22,1 18,8   Kalm   1006,1 82 -
01:04 22,0 18,8   Kalm   1006,1 82 -
01:09 21,8 18,6   Kalm   1005,8 82 -
01:14 21,7 18,6   Kalm   1005,8 83 -
01:19 21,6 18,6   Kalm   1006,1 83 -
01:24 21,4 18,4   Kalm   1006,1 83 -
01:29 21,3 18,3   Kalm   1006,1 83 -
01:34 21,1 18,3   Kalm   1006,1 84 -
01:39 21,0 18,2   Kalm   1006,1 84 -
01:44 20,9 18,1   Kalm   1006,1 84 -
01:49 20,8 18,1   Kalm   1006,1 85 -
01:54 20,7 18,1   Kalm   1005,8 85 -
01:59 20,7 18,1   Kalm   1005,8 85 -
02:04 20,6 18,0   Kalm   1005,8 85 -
02:09 20,4 17,8   Kalm   1005,8 85 -
02:14 20,3 17,9   Kalm   1005,4 86 -
02:19 20,3 17,9   Kalm   1005,8 86 -
02:24 20,2 17,8   Kalm   1005,8 86 -
02:29 20,1 17,7   Kalm   1005,8 86 -
02:34 20,0 17,7   Kalm   1005,8 87 -
02:39 19,9 17,7   Kalm   1005,8 87 -
02:44 19,8 17,6   Kalm   1005,8 87 -
02:49 19,8 17,6   Kalm   1005,8 87 -
02:54 19,7 17,5   Kalm   1005,8 87 -
02:59 19,7 17,5   Kalm   1005,4 87 -
03:04 19,6 17,6   Kalm   1005,4 88 -
03:09 19,6 17,6   Kalm   1005,4 88 -
03:14 19,6 17,4   Kalm   1005,4 87 -
03:19 19,5 17,4   Kalm   1005,4 88 -
03:24 19,4 17,4   Kalm   1005,4 88 -
03:29 19,4 17,4   Kalm   1005,4 88 -
03:34 19,4 17,4   Kalm   1005,4 88 -
03:39 19,3 17,3   Kalm   1005,4 88 -
03:44 19,3 17,4   Kalm   1005,4 89 -
03:49 19,3 17,4   Kalm   1005,4 89 -
03:54 19,3 17,4   Kalm   1005,1 89 -
03:59 19,2 17,3   Kalm   1005,1 89 -
04:04 19,2 17,3   Kalm   1005,1 89 -
04:09 19,2 17,3   Kalm   1005,1 89 -
04:14 19,2 17,3   Kalm   1005,1 89 -
04:19 19,2 17,3   Kalm   1005,1 89 -
04:24 19,1 17,2   Kalm   1005,1 89 -
04:29 19,1 17,2   Kalm   1005,1 89 -
04:34 19,0 17,1   Kalm   1005,1 89 -
04:39 18,9 17,0   Kalm   1005,1 89 -
04:44 18,9 17,0   Kalm   1005,1 89 -
04:49 18,8 16,9   Kalm   1005,1 89 -
04:54 18,8 16,9   Kalm   1005,1 89 -
04:59 18,8 16,9   Kalm   1005,1 89 -
05:04 18,7 17,0   Kalm   1005,1 90 -
05:09 18,7 17,0   Kalm   1005,1 90 -
05:14 18,7 17,0   Kalm   1005,1 90 -
05:19 18,6 16,9   Kalm   1005,1 90 -
05:24 18,6 16,9   Kalm   1005,1 90 -
05:29 18,6 16,9   Kalm   1005,1 90 -
05:34 18,6 16,9   Kalm   1005,1 90 -
05:39 18,5 16,8   Kalm   1005,4 90 -
05:44 18,5 16,8   Kalm   1005,4 90 -
05:49 18,5 16,8   Kalm   1005,4 90 -
05:54 18,4 16,7   Kalm   1005,4 90 -
05:59 18,4 16,7   Kalm   1005,4 90 -
06:04 18,4 16,7   Kalm   1005,4 90 -
06:09 18,4 16,7   Kalm   1005,4 90 -
06:14 18,4 16,9   Kalm   1005,4 91 -
06:19 18,4 16,9   Kalm   1005,4 91 -
06:24 18,4 16,9   Kalm   1005,4 91 -
06:29 18,4 16,9   Kalm   1005,4 91 -
06:34 18,4 16,9   Kalm   1005,4 91 -
06:39 18,6 17,1   Kalm   1005,4 91 -
06:44 18,7 17,2   Kalm   1005,4 91 -
06:49 18,8 17,3   Kalm   1005,1 91 -
06:54 18,9 17,4   Kalm   1005,1 91 -
06:59 19,1 17,6   Kalm   1005,1 91 -
07:04 19,3 18,0   Kalm   1005,1 92 -
07:09 19,4 18,1   Kalm   1005,4 92 -
07:14 19,7 18,2   Kalm   1005,4 92 -
07:19 19,8 18,3   Kalm   1005,4 91 -
07:24 20,1 18,7   Kalm   1005,4 92 -
07:29 20,3 18,8   Kalm   1005,4 91 -
07:34 20,5 19,0   Kalm   1005,4 91 -
07:39 20,7 19,2   Kalm   1005,4 91 -
07:44 21,0 19,5   Kalm   1005,4 91 -
07:49 21,3 19,6   Kalm   1005,8 91 -
07:54 21,4 19,6   Kalm   1005,8 90 -
07:59 21,7 19,8   Kalm   1005,8 89 -
08:04 22,0 19,9   Kalm   1005,8 89 -
08:09 22,3 19,9   Kalm   1005,4 88 -
08:14 22,5 19,9   Kalm   1005,4 86 -
08:19 22,8 20,0   Kalm   1005,4 85 -
08:24 23,0 20,1   Kalm   1005,4 85 -
08:29 23,2 20,2   Kalm   1005,4 83 -
08:34 23,3 20,2   Kalm   1005,4 83 -
08:39 23,6 20,1   Kalm   1005,4 82 -
08:44 23,8 20,3   Kalm   1005,4 81 -
08:49 24,0 20,4   Kalm   1005,4 81 -
08:54 24,2 20,1   Kalm   1005,4 78 -
08:59 24,4 20,3   Kalm   1005,4 79 -
09:04 24,6 20,1   Kalm   1005,4 77 -
09:09 24,8 20,4   Kalm   1005,4 77 -
09:14 24,9 20,4   Kalm   1005,4 76 -
09:19 25,2 20,5   Kalm   1005,4 75 -
09:24 25,3 20,8   Kalm   1005,4 76 -
09:29 25,5 20,5   Kalm   1005,4 74 -
09:34 25,6 20,6   Kalm   1005,4 74 -
09:39 25,7 20,4   Kalm   1005,4 73 -
09:44 25,7 20,5   Kalm   1005,8 73 -
09:49 25,7 20,3   Kalm   1005,4 72 -
09:54 25,7 20,5   Kalm   1005,4 73 -
09:59 25,7 20,5   Kalm   1005,4 73 -
10:04 25,8 20,6   Kalm   1005,4 73 -
10:09 25,8 20,8   Kalm   1005,4 74 -
10:14 25,8 20,6   Kalm   1005,4 73 -
10:19 25,8 20,5   Kalm   1005,4 73 -
10:24 25,7 20,5   Kalm   1005,4 73 -
10:29 25,8 20,6   Kalm   1005,4 73 -
10:34 25,8 20,8   Kalm   1005,8 74 -
10:39 25,8 20,8   Kalm   1005,8 74 -
10:44 25,9 20,7   Kalm   1005,8 73 -
10:49 25,8 20,6   Kalm   1005,8 73 -
10:54 25,9 20,9   Kalm   1005,8 74 -
10:59 25,9 20,9   Kalm   1006,4 74 -
11:04 25,8 20,8   Kalm   1006,4 74 -
11:09 25,7 20,8   Kalm   1006,4 75 -
11:14 25,6 20,8   Kalm   1006,4 75 -
11:19 25,4 20,6   Kalm   1006,4 75 -
11:24 25,2 20,5   Kalm   1006,4 75 -
11:29 24,9 20,5   Kalm   1006,8 77 -
11:34 24,8 20,8   Kalm   1006,8 79 -
11:39 24,7 20,9   Kalm   1007,1 80 -
11:44 24,6 20,9   Kalm   1007,1 81 0,76
11:49 24,3 20,8   Kalm   1007,1 81 4,06
11:54 23,8 20,6   Kalm   1007,1 83 4,32
11:59 23,4 20,6   Kalm   1007,1 85 4,32
12:04 23,3 21,0   Kalm   1007,5 87 4,32
12:09 23,4 21,3   Kalm   1007,5 88 4,32
12:14 23,4 21,3   Kalm   1007,5 88 4,32
12:19 23,4 21,1   Kalm   1007,5 87 4,32
12:24 23,3 21,2   Kalm   1007,5 88 4,32
12:29 23,3 21,2   Kalm   1007,5 88 4,32
12:34 23,3 21,0   Kalm   1007,5 87 4,32
12:39 23,3 21,0   Kalm   1007,5 87 4,32
12:44 23,2 20,9   Kalm   1007,5 87 4,32
12:49 23,3 21,0   Kalm   1007,1 87 3,05
12:54 23,4 21,3   Kalm 2,0 1007,1 88 -
12:59 23,5 21,4 1,0 WNW 2,0 1007,1 88 -
13:04 23,4 20,7   Kalm   1007,1 85 -
13:09 23,6 21,3   Kalm 2,0 1007,1 87 -
13:14 23,8 21,3   Kalm   1007,1 86 -
13:19 24,0 21,3   Kalm 2,0 1007,1 85 -
13:24 24,3 21,6   Kalm   1007,1 85 -
13:29 24,5 21,5   Kalm 2,0 1007,1 84 -
13:34 24,6 21,4   Kalm   1007,1 83 -
13:39 24,6 21,3   Kalm   1007,1 82 -
13:44 24,6 21,1   Kalm   1007,1 81 -
13:49 24,4 20,9   Kalm   1007,1 81 -
13:54 24,3 21,0   Kalm   1007,1 82 -
13:59 24,3 21,0   Kalm   1007,1 82 -
14:04 24,3 21,2   Kalm   1007,1 83 -
14:09 24,3 21,2   Kalm   1006,8 83 0,25
14:14 24,2 21,0   Kalm   1006,8 83 0,25
14:19 24,1 21,2   Kalm   1006,8 84 0,25
14:24 24,1 21,2   Kalm   1006,8 84 0,25
14:29 24,3 21,4   Kalm   1006,8 84 0,25
14:34 24,4 21,5   Kalm   1007,1 84 0,25
14:39 24,6 21,7   Kalm   1007,1 84 0,25
14:44 24,7 21,4   Kalm   1007,1 82 0,25
14:49 24,8 21,4   Kalm   1007,1 82 0,25
14:54 24,9 21,6   Kalm   1007,1 82 0,25
14:59 25,1 21,6   Kalm   1007,1 81 0,25
15:04 25,2 21,6   Kalm   1007,1 81 0,25
15:09 25,3 21,6   Kalm   1007,1 80 0,25
15:14 25,3 21,4   Kalm   1007,5 79 -
15:19 25,4 21,5   Kalm   1007,5 79 -
15:24 25,4 21,5   Kalm   1007,5 79 -
15:29 25,3 21,4   Kalm   1007,1 79 -
15:34 25,4 21,5   Kalm   1007,5 79 -
15:39 25,3 21,3   Kalm   1007,5 79 -
15:44 25,2 21,4   Kalm   1007,5 80 -
15:49 25,1 21,4   Kalm   1007,5 80 -
15:54 24,9 21,2   Kalm   1007,5 80 0,25
15:59 24,6 20,9   Kalm   1007,5 80 0,25
16:04 24,3 20,7   Kalm   1007,5 81 0,25
16:09 24,0 20,7   Kalm   1007,5 82 0,25
16:14 23,9 20,6   Kalm   1007,5 82 0,25
16:19 23,9 20,6   Kalm   1007,5 82 0,25
16:24 23,9 20,6   Kalm   1007,5 82 0,25
16:29 23,8 20,5   Kalm   1007,5 82 0,25
16:34 23,7 20,4   Kalm   1007,8 82 0,25
16:39 23,6 20,3   Kalm   1007,8 82 0,25
16:44 23,6 20,3   Kalm   1007,8 82 0,25
16:49 23,6 20,3   Kalm   1007,8 82 0,25
16:54 23,6 20,3   Kalm   1007,8 82 0,25
16:59 23,5 20,0   Kalm   1007,8 81 -
17:04 23,6 20,1   Kalm   1007,8 81 -
17:09 23,6 19,9   Kalm   1007,8 80 -
17:14 23,6 19,7 3,0 WZW 3,0 1007,8 79 -
17:19 23,6 19,9   Kalm 3,0 1008,1 80 -
17:24 23,6 19,9   Kalm   1008,1 80 -

Download your copy of this data-set  here

Our weather-data as stored at Weather Underground. Script ontwikkeld door Jim McMurry. Aangepast voor de template door Leuven-Template.eu

U vindt ons ook hier:

Het Weer Aktueel

European Weather Network

Weather Underground

Benelux Weer Netwerk

Apparatuur in gebruik:

Weerstation
Davis VP2

Weerprogramma
Meteobridge

Weercomputer
Meteobridge Pro+

Webleverancier
vip.nl

Davis VP2

Meteobridge

Meteobridge Pro+

vip.nl